GMMEGMMX

Guest
Details From GMME - SALE
To GMMX - MENARA
Flight Number -
Tags generated
Created
Modified
Stats Distance 161 nm / 297 km
Max Altitude 16,900 ft / 5,151 m
Waypoints 3
Social Downloads 0
Likes 0
Share VATSIM

Download

Looking for another format? Having issues loading an existing format? Contact us
Advertisement - Login to hide

Notes

Basic altitude profile: - Ascent Rate: 2500ft/min - Ascent Speed: 250kts - Cruise Altitude: 90ft - Cruise Speed: 420kts - Descent Rate: 1500ft/min - Descent Speed: 250kts Options: - Use NATs: yes - Use PACOTS: yes - Use low airways: yes - Use high airways: yes

Route

GMME PELIN GMMX

ID Type Via Altitude Latitude Longitude Leg Dist Tot Dist Heading (true) Name
O GMME APT - 0 ft / 0 m 34.05147˚ -6.75152˚ - 0 nm - SALE
PELIN FIX - 16,900 ft / 5,151 m 32.89417˚ -7.39667˚ 76 nm 76 nm 205° / 205° -
O GMMX APT - 0 ft / 0 m 31.60692˚ -8.03627˚ 83 nm 160 nm 203° / 203° MENARA

Altitude Profile

Advertisement - Login to hide

GMME

Details ICAO GMME (RBA)
Name SALE
Region Morocco
Timezone Africa/Casablanca (UTC+0.0)
Stats Elevation 276 ft / 84 m (AMSL)
Location 34.051468° -6.751519°
Runways 1
Magnetic Variation 1.500° W

METAR

GMME 270000Z 12003KT 080V160 8000 FEW026 16/13 Q1015 NOSIG

Decode

TAF

TAF GMME 262300Z 2700/2806 32012KT 8000 SCT013 TEMPO 2702/2706 18008KT

Decode

Departure Runways

ID Width Length Bearing (true) Bearing (mag) Surface Threshold Offset Overrun Length
04 148 ft / 45 m 11,503 ft / 3,506 m 31.24° 32.74° Asphalt 0 ft / 0 m 197 ft / 60 m
22 148 ft / 45 m 11,503 ft / 3,506 m 211.25° 212.75° Asphalt 0 ft / 0 m 197 ft / 60 m

GMMX

Details ICAO GMMX (RAK)
Name MENARA
Region Morocco
Timezone Africa/Casablanca (UTC+0.0)
Stats Elevation 1,545 ft / 471 m (AMSL)
Location 31.606920° -8.036265°
Runways 1
Magnetic Variation 1.950° W

METAR

GMMX 270000Z 31007KT 8000 BKN026 17/11 Q1016 NOSIG

Decode

TAF

TAF GMMX 262300Z 2700/2806 28006KT 8000 BKN026 TEMPO 2712/2721 32014KT BKN023 FEW033TCU PROB30 TEMPO 2723/2803 SCT016 5000 -RA

Decode

Destination Runways

ID Width Length Bearing (true) Bearing (mag) Surface Threshold Offset Overrun Length
10 148 ft / 45 m 10,169 ft / 3,100 m 95.99° 97.94° Asphalt 918 ft / 280 m 0 ft / 0 m
28 148 ft / 45 m 10,169 ft / 3,100 m 276.00° 277.95° Asphalt 0 ft / 0 m 0 ft / 0 m

Approach Navaids

Runway Type Ident Frequency Range Bearing (true) Bearing (mag) Slope Elevation
10 Localiser MAR 109.70 MHz 18 nm / 33 km 96.03° 97.97° - 1,545 ft / 471 m (AMSL)
10 Glidescope MAR 109.70 MHz 10 nm / 19 km 96.00° 97.95° 3.00° 1,558 ft / 475 m (AMSL)

Popular Alternatives